Probability
0 0 0 0 0 0 0 0 0 0 0 0 0 0 0 0 0 0 0 0 0 0 0 0 0 0 0 0 0 0 0 0 0 0 0 0 0 0 0 0 0 0 0
0 0 0 0 0 0 0 0 0 0 0 0 0 0 0 0 0 0 0 0 0 0 0 0 0 0 0 0 0 0 0 0 0 0 0 0 0 0 0 0 0 0 0
0 0 0 0 0 0 0 0 0 0 0 0 0 0 0 0 0 0 0 0 0 0 0 0 0 0 0 0 0 0 0 0 0 0 0 0 0 0 0 0 0 0 0
0 0 0 0 0 0 0 0 0 0 0 0 0 0 0 0 0 0 0 0 0 0 0 0 0 0 0 0 0 0 0 0 0 0 0 0 0 0 0 0 0 0 0
0 0 0 0 0 0 0 0 0 0 0 0 0 0 0 0 0 0 0 0 0 0 0 0 0 0 0 0 0 0 0 0 0 0 0 0 0 0 0 0 0 0 0
0 0 0 0 0 0 0 0 0 0 0 0 0 0 0 0 0 0 0 0 0 0 0 0 0 0 0 0 0 0 0 0 0 0 0 0 0 0 0 0 0 0 0
0 0 0 0 0 0 0 0 0 0 0 0 0 0 0 0 0 0 0 0 0 0 0 0 0 0 0 0 0 0 0 0 0 0 0 0 0 0 0 0 0 0 0
0 0 0 0 0 0 0 0 0 0 0 0 0 0 0 0 0 0 0 0 0 0 0 0 0 0 0 0 0 0 0 0 0 0 0 0 0 0 0 0 0 0 0
0 0 0 0 0 0 0 0 0 0 0 0 0 0 0 0 0 0 0 0 0 0 0 0 0 0 0 0 0 0 0 0 0 0 0 0 0 0 0 0 0 0 0
0 0 0 0 0 0 0 0 0 0 0 0 0 0 0 0 0 0 0 0 0 0 0 0 0 0 0 0 0 0 0 0 0 0 0 0 0 0 0 0 0 0 0
0 0 0 0 0 0 0 0 0 0 0 0 0 0 0 0 0 0 0 0 0 0 0 0 0 0 0 0 0 0 0 0 0 0 0 0 0 0 0 0 0 0 0
0 0 0 0 0 0 0 0 0 0 0 0 0 0 0 0 0 0 0 0 0 0 0 0 0 0 0 0 0 0 0 0 0 0 0 0 0 0 0 0 0 0 0
0 0 0 0 0 0 0 0 0 0 0 0 0 0 0 0 0 0 0 0 0 0 0 0 0 0 0 0 0 0 0 0 0 0 0 0 0 0 0 0 0 0 0
0 0 0 0 0 0 0 0 0 0 0 0 0 0 0 0 0 0 0 0 0 0 0 0 0 0 0 0 0 0 0 0 0 0 0 0 0 0 0 0 0 0 0
0 0 0 0 0 0 0 0 0 0 0 0 0 0 0 0 0 0 0 0 0 0 0 0 0 0 0 0 0 0 0 0 0 0 0 0 0 0 0 0 0 0 0
0 0 0 0 0 0 0 0 0 0 0 0 0 0 0 0 0 0 0 0 0 0 0 0 0 0 0 0 0 0 0 0 0 0 0 0 0 0 0 0 0 0 0
0 0 0 0 0 0 0 0 0 0 0 0 0 0 0 0 0 0 0 0 0 0 0 0 0 0 0 0 0 0 0 0 0 0 0 0 0 0 0 0 0 0 0
0 0 0 0 0 0 0 0 0 0 0 0 0 0 0 0 0 0 0 0 0 0 0 0 0 0 0 0 0 0 0 0 0 0 0 0 0 0 0 0 0 0 0
0 0 0 0 0 0 0 0 0 0 0 0 0 0 0 0 0 0 0 0 0 0 0 0 0 0 0 0 0 0 0 0 0 0 0 0 0 0 0 0 0 0 0
0 0 0 0 0 0 0 0 0 0 0 0 0 0 0 0 0 0 0 0 0 0 0 0 0 0 0 0 0 0 0 0 0 0 0 0 0 0 0 0 0 0 0
0 0 0 0 0 0 0 0 0 0 0 0 0 0 0 0 0 0 0 0 0 0 0 0 0 0 0 0 0 0 0 0 0 0 0 0 0 0 0 0 0 0 0
0 0 0 0 0 0 0 0 0 0 0 0 0 0 0 0 0 0 0 0 0 0 0 0 0 0 0 0 0 0 0 0 0 0 0 0 0 0 0 0 0 0 0
0 0 0 0 0 0 0 0 0 0 0 0 0 0 0 0 0 0 0 0 0 0 0 0 0 0 0 0 0 0 0 0 0 0 0 0 0 0 0 0 0 0 0
0 0 0 0 0 0 0 0 0 0 0 0 0 0 0 0 0 0 0 0 0 0 0 0 0 0 0 0 0 0 0 0 0 0 0 0 0 0 0 0 0 0 0
0 0 0 0 0 0 0 0 0 0 0 0 0 0 0 0 0 0 0 0 0 0 0 0 0 0 0 0 0 0 0 0 0 0 0 0 0 0 0 0 0 0 0
0 0 0 0 0 0 0 0 0 0 0 0 0 0 0 0 0 0 0 0 0 0 0 0 0 0 0 0 0 0 0 0 0 0 0 0 0 0 0 0 0 0 0
Height
5804 5804 5805 5806 5806 5807 5807 5808 5808 5808 5809 5809 5809 5809 5808 5808 5807 5806 5805 5804 5803 5802 5801 5800 5799 5797 5796 5795 5794 5792 5791 5790 5789 5788 5786 5784 5782 5781 5779 5778 5776 5775 5774
5797 5798 5798 5799 5799 5800 5801 5801 5802 5802 5802 5802 5802 5802 5802 5802 5801 5801 5800 5799 5798 5796 5795 5794 5793 5792 5791 5790 5789 5787 5786 5785 5783 5782 5781 5779 5777 5775 5773 5772 5770 5769 5768
5790 5790 5791 5791 5792 5793 5793 5794 5795 5795 5795 5796 5796 5796 5796 5795 5795 5795 5794 5793 5792 5791 5790 5789 5788 5787 5785 5784 5783 5781 5780 5779 5777 5776 5774 5773 5771 5769 5768 5766 5764 5763 5762
5783 5783 5784 5784 5785 5786 5786 5786 5787 5788 5789 5789 5789 5789 5789 5788 5788 5788 5788 5787 5786 5785 5784 5782 5781 5780 5779 5778 5776 5775 5773 5772 5771 5769 5768 5766 5764 5763 5761 5760 5758 5757 5756
5776 5776 5777 5777 5777 5778 5779 5779 5779 5780 5781 5781 5782 5782 5781 5781 5781 5781 5781 5780 5779 5778 5777 5776 5775 5774 5772 5771 5770 5768 5767 5765 5764 5763 5761 5759 5758 5756 5755 5753 5752 5751 5750
5768 5769 5769 5769 5770 5770 5771 5771 5771 5772 5773 5773 5774 5774 5774 5774 5774 5774 5773 5773 5772 5771 5770 5769 5768 5767 5766 5764 5763 5761 5760 5758 5757 5756 5754 5753 5751 5749 5748 5746 5745 5745 5744
5760 5760 5761 5761 5761 5762 5762 5762 5763 5763 5764 5765 5765 5765 5765 5766 5766 5766 5765 5765 5764 5763 5763 5762 5761 5760 5759 5758 5756 5755 5753 5752 5750 5749 5747 5746 5744 5743 5741 5740 5739 5738 5737
5752 5752 5752 5753 5753 5753 5753 5754 5754 5754 5755 5756 5756 5757 5757 5757 5757 5757 5757 5757 5756 5755 5755 5754 5754 5753 5752 5751 5750 5748 5747 5745 5744 5742 5741 5739 5737 5736 5734 5733 5732 5731 5730
5743 5743 5743 5744 5744 5744 5744 5745 5745 5746 5746 5747 5748 5748 5749 5749 5749 5749 5749 5748 5748 5747 5747 5746 5746 5745 5744 5743 5742 5742 5740 5739 5737 5735 5733 5731 5730 5729 5727 5726 5724 5724 5723
5734 5734 5735 5735 5735 5735 5735 5735 5736 5736 5737 5738 5739 5739 5739 5740 5740 5740 5740 5740 5740 5739 5739 5738 5738 5737 5736 5735 5735 5734 5733 5731 5730 5728 5726 5725 5723 5721 5720 5719 5717 5716 5715
5725 5725 5725 5726 5726 5726 5726 5726 5726 5726 5727 5729 5729 5730 5730 5731 5731 5731 5731 5732 5732 5731 5730 5730 5730 5729 5728 5727 5726 5726 5725 5723 5722 5720 5719 5717 5716 5714 5712 5711 5710 5709 5708
5715 5715 5716 5716 5716 5716 5716 5716 5716 5717 5717 5718 5719 5720 5721 5721 5721 5722 5722 5722 5722 5722 5722 5722 5721 5720 5720 5719 5718 5717 5716 5715 5714 5712 5711 5710 5708 5707 5705 5704 5702 5701 5700
5704 5704 5705 5705 5705 5706 5706 5706 5706 5707 5707 5708 5709 5710 5711 5711 5712 5712 5712 5713 5713 5713 5712 5712 5712 5711 5710 5709 5709 5707 5706 5706 5705 5704 5703 5702 5700 5699 5697 5696 5694 5693 5692
5693 5694 5694 5695 5695 5695 5695 5695 5696 5696 5697 5698 5699 5700 5701 5701 5702 5702 5702 5703 5703 5702 5702 5702 5702 5701 5700 5700 5699 5698 5697 5696 5695 5695 5694 5693 5691 5690 5689 5687 5686 5684 5683
5682 5683 5683 5684 5684 5685 5685 5685 5686 5686 5687 5688 5689 5690 5690 5691 5691 5692 5692 5692 5692 5692 5692 5691 5691 5691 5691 5689 5688 5688 5687 5686 5685 5685 5684 5683 5682 5681 5680 5678 5677 5676 5675
5671 5672 5673 5673 5674 5674 5674 5675 5675 5676 5676 5677 5678 5679 5679 5680 5681 5681 5681 5682 5681 5681 5681 5681 5681 5680 5680 5679 5678 5677 5676 5676 5675 5675 5674 5673 5672 5671 5670 5669 5667 5667 5666
5661 5661 5661 5662 5663 5663 5663 5664 5665 5666 5666 5666 5667 5668 5668 5669 5670 5670 5670 5670 5670 5670 5670 5670 5669 5669 5668 5667 5667 5666 5665 5665 5664 5664 5663 5663 5662 5661 5660 5659 5658 5657 5656
5650 5650 5651 5651 5652 5652 5653 5653 5654 5655 5655 5656 5656 5656 5657 5658 5658 5658 5658 5658 5658 5658 5658 5658 5657 5657 5656 5656 5655 5655 5654 5653 5653 5653 5653 5652 5651 5651 5650 5649 5648 5647 5646
5639 5640 5640 5640 5641 5641 5642 5642 5643 5643 5644 5644 5645 5645 5645 5646 5646 5646 5646 5647 5647 5646 5646 5645 5645 5644 5643 5643 5643 5643 5643 5642 5642 5642 5642 5642 5641 5640 5639 5639 5637 5636 5635
5629 5629 5629 5629 5630 5630 5630 5631 5631 5632 5632 5633 5634 5634 5634 5634 5634 5635 5634 5635 5634 5634 5633 5633 5632 5631 5631 5630 5631 5631 5631 5631 5631 5631 5631 5631 5630 5630 5629 5628 5627 5626 5624
5619 5618 5617 5618 5618 5619 5619 5620 5620 5621 5621 5622 5623 5622 5623 5623 5623 5623 5623 5623 5622 5622 5621 5620 5619 5619 5618 5618 5618 5619 5619 5619 5620 5620 5620 5620 5619 5618 5618 5617 5616 5614 5613
5608 5607 5607 5607 5607 5607 5608 5608 5609 5609 5610 5611 5611 5611 5611 5611 5611 5611 5611 5611 5610 5609 5609 5608 5608 5607 5606 5606 5607 5607 5607 5608 5608 5609 5609 5608 5608 5607 5606 5605 5604 5603 5602
5598 5597 5597 5597 5597 5597 5597 5597 5598 5598 5599 5599 5599 5600 5600 5600 5600 5600 5600 5599 5599 5598 5598 5597 5596 5596 5595 5595 5596 5596 5596 5597 5597 5597 5597 5597 5596 5595 5595 5594 5593 5592 5591
5587 5587 5586 5586 5586 5586 5586 5587 5587 5587 5588 5588 5589 5589 5589 5589 5589 5589 5588 5588 5588 5587 5587 5586 5585 5585 5585 5585 5585 5585 5585 5585 5585 5585 5585 5585 5584 5583 5583 5582 5581 5580 5579
5578 5577 5577 5576 5576 5576 5576 5576 5576 5576 5577 5577 5578 5578 5578 5578 5578 5578 5578 5577 5577 5576 5575 5575 5574 5574 5574 5574 5574 5574 5574 5574 5574 5574 5573 5573 5572 5572 5571 5570 5569 5568 5567
5569 5568 5568 5567 5567 5566 5566 5567 5567 5566 5567 5567 5567 5567 5567 5567 5567 5567 5566 5566 5566 5565 5565 5564 5564 5563 5563 5563 5563 5563 5563 5563 5562 5561 5561 5561 5560 5560 5559 5558 5557 5556 5556
Wind_Speed
23 24 23 23 23 23 22 22 22 22 20 20 20 20 20 19 19 18 18 18 18 18 18 18 17 17 17 17 17 17 17 17 17 17 18 18 19 19 19 19 19 19 19
23 24 24 24 25 25 24 24 24 23 22 21 21 20 20 20 20 19 19 19 19 19 19 19 19 18 19 19 20 20 19 19 19 19 19 20 20 20 20 20 20 20 19
24 24 25 25 25 25 25 26 25 24 24 22 22 21 21 21 21 20 20 20 21 20 20 20 20 20 20 21 21 21 21 21 21 21 21 21 21 21 21 21 21 20 20
25 25 25 25 25 25 25 26 26 26 25 24 23 22 22 22 21 21 21 21 21 21 22 21 21 22 22 22 23 23 23 22 22 22 22 22 22 21 22 22 21 21 20
25 25 26 26 26 26 26 26 26 26 26 26 24 23 23 23 22 22 22 22 22 22 22 22 22 23 23 23 23 23 23 23 23 23 22 22 22 22 23 23 22 22 21
26 26 26 27 27 27 27 27 27 27 26 26 26 25 24 24 24 24 24 24 24 24 23 22 23 23 23 23 24 23 24 24 23 23 23 23 23 23 24 24 23 23 22
27 27 27 28 28 28 29 28 29 28 28 28 28 27 26 26 26 26 26 25 25 24 24 24 24 24 23 24 24 24 24 24 24 24 24 24 24 24 24 24 24 24 24
27 27 27 27 28 28 29 29 29 29 28 28 29 29 28 28 27 27 27 27 26 26 26 26 25 25 24 24 24 24 25 25 25 25 25 25 25 25 25 25 25 25 25
28 28 28 28 28 29 30 30 30 30 30 30 29 29 29 28 28 28 29 28 27 28 27 27 26 26 26 26 26 26 25 25 26 26 25 25 25 26 26 26 25 25 25
30 30 30 30 30 30 31 31 32 31 31 31 31 31 30 29 29 29 29 28 27 27 27 27 27 27 27 27 27 27 27 27 27 27 27 26 26 26 26 26 25 25 25
32 32 31 31 31 31 31 31 33 32 32 32 32 32 32 31 30 29 29 28 28 28 28 28 29 29 29 29 29 28 28 27 27 27 27 27 27 26 26 26 25 26 26
33 33 32 32 32 32 32 32 33 34 33 33 32 32 31 31 31 31 30 29 29 29 29 30 30 30 31 31 31 30 30 29 29 29 29 28 28 28 28 28 27 27 27
35 34 34 34 34 33 33 33 33 34 34 34 33 33 33 33 33 33 32 32 32 32 32 31 32 32 32 32 32 32 32 31 31 30 30 29 29 29 29 29 29 28 28
35 35 34 35 34 34 34 34 34 34 34 34 34 34 34 35 34 34 34 34 34 34 34 34 33 32 33 33 33 33 33 33 33 31 30 30 30 30 30 30 30 30 29
34 34 34 35 35 35 35 34 34 34 35 35 34 34 35 35 35 35 35 35 35 35 36 36 35 34 34 34 34 34 34 34 34 33 32 32 31 31 31 31 31 30 30
34 34 34 34 34 34 34 34 34 34 35 36 36 36 35 35 36 36 35 35 35 35 36 35 35 35 36 36 36 35 35 34 34 34 33 32 31 31 31 31 31 31 31
33 34 34 34 34 33 33 33 34 35 35 36 36 36 36 36 37 37 36 36 36 36 36 36 36 37 37 37 36 36 34 34 33 34 33 32 32 32 32 32 32 32 32
34 34 34 34 34 34 33 33 34 35 36 36 36 36 37 37 38 37 37 37 37 37 38 38 38 39 38 37 37 36 35 34 33 33 33 34 34 33 33 33 33 33 33
33 34 34 35 35 34 34 34 34 34 35 36 36 36 36 37 38 38 38 37 38 38 39 39 39 40 40 39 38 36 35 35 34 34 34 33 33 33 33 33 33 33 34
32 32 33 34 34 35 35 34 33 34 34 35 35 35 35 36 36 37 38 38 37 38 38 38 39 39 39 39 38 37 36 35 35 34 34 33 33 33 34 34 34 34 34
32 32 32 33 33 33 33 34 34 34 33 34 35 36 36 36 37 37 37 38 38 37 37 37 37 37 37 37 37 36 36 35 35 35 34 34 34 35 35 35 35 35 35
32 32 32 32 32 32 32 33 34 35 35 34 34 35 36 37 37 37 36 37 36 36 35 35 35 35 35 34 34 35 35 35 35 35 35 35 35 35 35 35 35 35 36
30 30 31 31 31 31 31 32 33 33 33 33 34 34 35 35 36 35 35 35 34 34 33 32 32 32 32 33 33 33 33 33 34 35 35 35 35 35 36 36 36 36 36
29 29 29 29 30 30 31 31 32 34 34 33 34 34 34 34 34 34 34 33 33 33 33 32 32 32 32 32 32 33 33 33 34 34 35 36 36 36 36 36 37 37 37
27 27 27 28 29 29 29 30 31 31 33 33 34 34 34 33 33 33 33 32 31 32 32 33 33 32 32 32 33 33 33 34 35 35 35 36 36 35 35 36 36 37 37
26 26 26 26 26 27 28 29 29 30 30 31 32 32 32 32 32 32 32 32 32 31 32 32 33 33 33 33 33 33 33 34 35 35 35 35 35 35 35 34 34 35 35
Wind_Direction
257 256 257 257 257 258 259 259 260 263 266 268 272 273 276 278 279 279 282 283 284 285 286 286 286 285 284 284 283 284 285 287 289 291 291 293 293 293 292 291 291 290 286
259 258 257 257 256 256 257 258 260 263 264 267 270 270 273 274 276 278 280 283 283 283 283 284 283 283 282 281 281 282 283 284 287 289 290 290 291 292 291 291 290 289 286
259 258 258 258 257 257 258 258 259 261 262 265 266 270 274 273 273 276 279 282 282 281 281 282 281 281 281 281 281 281 281 283 285 288 288 288 289 290 290 290 288 287 285
260 260 259 258 256 257 259 260 259 259 261 263 266 270 270 271 272 273 276 279 280 281 281 280 279 280 280 280 280 281 282 283 284 286 287 288 288 288 289 289 288 286 285
260 259 260 259 258 258 260 261 260 260 261 263 265 268 269 268 270 272 274 277 280 280 279 279 278 279 279 280 281 281 282 283 283 284 285 286 288 288 287 288 287 285 283
260 260 260 261 261 260 260 261 260 260 262 263 265 267 267 267 269 272 274 275 277 277 277 278 278 278 278 279 280 281 282 282 283 283 283 284 285 287 287 285 285 282 280
262 261 262 263 263 262 262 262 261 260 262 263 266 267 267 266 269 272 275 274 274 274 275 276 277 276 277 278 279 280 280 281 282 283 283 284 284 285 285 284 283 281 280
262 263 262 263 264 263 262 262 262 261 261 263 265 267 267 267 269 270 272 273 273 273 274 274 274 274 275 278 278 279 281 281 282 283 283 283 283 283 284 283 282 280 279
261 262 263 264 265 264 263 263 261 261 262 263 265 266 267 268 268 269 272 273 272 272 273 274 274 274 275 277 278 278 280 282 283 283 284 284 285 286 285 284 282 279 278
263 263 264 265 265 266 266 265 263 263 263 263 263 265 266 266 267 268 268 269 271 272 272 272 275 275 275 277 279 279 279 281 282 282 283 283 285 286 285 284 282 280 279
265 265 265 265 265 266 266 265 264 262 262 263 263 265 265 265 266 267 268 269 270 271 271 272 274 274 274 275 277 278 279 280 281 281 282 284 284 284 284 284 284 283 281
264 265 266 266 265 266 265 265 263 261 261 262 262 263 263 264 266 266 267 268 269 270 271 272 273 273 274 275 276 277 277 277 279 280 282 283 284 284 284 284 284 284 283
263 264 265 266 267 267 266 265 264 263 262 261 262 262 262 263 265 265 265 267 268 270 271 272 272 274 274 275 276 276 276 276 278 279 281 283 283 284 284 283 282 283 283
263 263 265 266 266 266 265 264 264 263 262 263 263 264 263 263 265 266 266 267 269 270 270 272 274 275 275 276 276 276 276 276 277 278 280 281 282 283 283 281 281 281 280
264 263 264 265 266 266 266 265 264 264 264 264 264 266 265 265 265 265 265 267 269 270 270 271 272 274 275 276 275 275 275 275 275 277 279 280 280 281 281 281 280 279 280
264 264 264 265 266 267 267 266 265 265 265 264 265 266 266 266 265 266 267 268 268 269 270 271 272 273 274 274 274 274 274 274 275 276 277 278 279 279 280 279 279 278 278
266 264 264 265 266 267 267 267 265 265 265 266 266 266 266 266 267 267 268 269 269 269 270 271 272 272 273 273 272 272 273 273 273 273 272 274 276 277 278 278 278 277 278
267 265 264 265 265 266 266 266 266 265 265 265 265 266 266 265 267 267 268 269 269 270 271 270 271 271 272 272 271 271 271 272 272 272 272 273 274 275 276 277 277 277 277
269 267 265 265 265 266 266 266 266 265 265 265 265 265 265 266 267 267 267 269 269 270 271 272 271 271 270 270 270 270 270 270 271 271 272 273 273 274 275 276 276 277 276
270 268 267 267 267 266 265 264 264 264 265 265 265 265 266 266 267 267 268 269 270 271 271 272 272 271 271 269 268 268 268 269 269 270 270 271 272 273 274 275 275 276 276
270 270 269 269 268 266 265 264 263 263 264 265 264 264 265 266 267 267 268 269 270 270 270 270 271 271 270 268 267 266 267 267 268 268 269 270 271 273 273 274 274 274 275
272 271 269 268 267 266 265 265 265 264 264 264 265 266 267 267 267 267 267 268 270 271 271 271 271 271 270 268 266 265 266 266 267 268 270 272 273 273 273 274 274 274 274
275 273 270 267 266 266 266 266 265 264 264 264 265 265 267 268 268 269 269 270 271 272 272 272 271 271 269 267 266 266 266 266 267 268 270 271 273 274 274 273 273 274 275
276 274 271 268 266 266 267 267 267 265 264 264 265 265 267 268 269 269 270 270 271 271 271 271 271 271 269 267 267 267 267 268 269 270 271 271 273 274 274 273 273 274 274
276 275 273 271 268 267 267 267 267 267 265 264 265 265 267 269 270 270 270 270 270 270 271 271 271 271 269 268 268 269 269 269 271 271 272 272 274 274 274 274 274 274 274
277 276 275 274 272 270 269 268 268 268 268 267 266 265 267 270 270 270 270 269 269 271 271 270 270 270 269 268 268 270 271 271 271 272 272 273 274 274 274 274 274 274 274